Weather History for KBVY - October, 2012

Change the Weather History Date:

Wednesday, October 31, 2012

  Actual Average Record
Temperature  
Mean Temperature 54 °F -  
Max Temperature 59 °F 53 °F 75 °F (2009)
Min Temperature 50 °F 35 °F 25 °F (2001)
Degree Days  
Heating Degree Days 10    
Growing Degree Days 4 (Base 50)    
Moisture  
Dew Point 49 °F    
Average Humidity 81    
Maximum Humidity 100    
Minimum Humidity 62    
Precipitation  
Precipitation 0.00 in - - ()
Sea Level Pressure  
Sea Level Pressure 29.50 in    
Wind  
Wind Speed 6 mph (South)    
Max Wind Speed 13 mph    
Max Gust Speed 18 mph    
Visibility 9 miles    
Events Fog    
Averages and records for this station are not official NWS values.
T = Trace of Precipitation, MM = Missing Value Source: NWS Daily Summary

Daily Weather History Graph

Daily Weather History Graph

Search for Another Location

Airport or City:

Trip Planner

Search our weather history database for the weather conditions in past years. The results will help you decide how hot, cold, wet, or windy it might be!

Date:

Astronomy

Oct. 31, 2012 Rise Set
Actual Time 7:16 AM EDT 5:37 PM EDT
Civil Twilight 6:47 AM EDT 6:06 PM EDT
Nautical Twilight 6:14 AM EDT 6:39 PM EDT
Astronomical Twilight 5:41 AM EDT 7:12 PM EDT
Moon 6:43 PM EDT (10/31) 8:57 AM EDT (10/31)
Length of Visible Light 11h 19m
Length of Day
10h 20m
Full, 97% of the Moon is Illuminated
Oct 31
Full
Nov 6
Last Quarter
Nov 13
New
Nov 20
First Quarter
Nov 28
Full

Hourly Weather History & Observations

Time (EDT) Temp. Dew Point Humidity Pressure Visibility Wind Dir Wind Speed Gust Speed Precip Events Conditions
12:53 AM 55.0 °F 53.1 °F 93% 29.51 in 10.0 mi Calm Calm - N/A   Partly Cloudy
1:53 AM 54.0 °F 52.0 °F 93% 29.49 in 9.0 mi Calm Calm - N/A   Mostly Cloudy
2:50 AM 53.6 °F 51.8 °F 94% 29.50 in 8.0 mi East 5.8 mph - N/A   Scattered Clouds
2:53 AM 54.0 °F 52.0 °F 93% 29.49 in 7.0 mi East 6.9 mph - N/A   Mostly Cloudy
3:00 AM 55.4 °F 53.6 °F 94% 29.50 in 1.8 mi ESE 4.6 mph - N/A   Mostly Cloudy
3:11 AM 55.4 °F 55.4 °F 100% 29.50 in 0.5 mi ESE 5.8 mph - N/A Fog Fog
3:53 AM 57.9 °F 55.9 °F 93% 29.47 in 4.0 mi East 5.8 mph - N/A   Overcast
4:00 AM 57.2 °F 55.4 °F 94% 29.48 in 7.0 mi East 5.8 mph - N/A   Overcast
4:30 AM 57.2 °F 55.4 °F 94% 29.48 in 10.0 mi SE 6.9 mph - N/A   Overcast
4:53 AM 57.9 °F 54.0 °F 87% 29.47 in 10.0 mi SE 6.9 mph - N/A   Overcast
5:13 AM 59.0 °F 53.6 °F 82% 29.47 in 10.0 mi SE 9.2 mph - N/A   Overcast
5:53 AM 57.9 °F 54.0 °F 87% 29.45 in 10.0 mi ESE 9.2 mph 18.4 mph N/A   Overcast
6:53 AM 57.9 °F 55.0 °F 90% 29.47 in 10.0 mi SE 8.1 mph - N/A   Overcast
7:48 AM 57.2 °F 55.4 °F 94% 29.50 in 10.0 mi South 9.2 mph - N/A   Overcast
7:53 AM 57.9 °F 55.0 °F 90% 29.49 in 10.0 mi South 10.4 mph - N/A   Mostly Cloudy
8:19 AM 57.2 °F 51.8 °F 82% 29.51 in 10.0 mi SSW 9.2 mph 16.1 mph N/A   Mostly Cloudy
8:53 AM 57.0 °F 50.0 °F 77% 29.50 in 10.0 mi SW 12.7 mph - N/A   Mostly Cloudy
9:53 AM 57.0 °F 50.0 °F 77% 29.51 in 10.0 mi WSW 10.4 mph - N/A   Mostly Cloudy
10:53 AM 57.0 °F 46.0 °F 67% 29.54 in 10.0 mi SW 10.4 mph - N/A   Overcast
11:53 AM 55.9 °F 45.0 °F 67% 29.53 in 10.0 mi SW 6.9 mph - N/A   Overcast
12:53 PM 55.9 °F 45.0 °F 67% 29.52 in 10.0 mi South 10.4 mph - N/A   Overcast
1:53 PM 55.9 °F 45.0 °F 67% 29.50 in 10.0 mi South 6.9 mph - N/A   Overcast
2:53 PM 57.0 °F 45.0 °F 64% 29.50 in 10.0 mi South 8.1 mph - N/A   Overcast
3:53 PM 55.9 °F 45.0 °F 67% 29.50 in 10.0 mi South 8.1 mph - N/A   Overcast
4:53 PM 57.0 °F 44.1 °F 62% 29.51 in 10.0 mi SSW 9.2 mph - N/A   Mostly Cloudy
5:53 PM 54.0 °F 44.1 °F 69% 29.51 in 10.0 mi South 5.8 mph - N/A   Mostly Cloudy
6:53 PM 53.1 °F 45.0 °F 74% 29.53 in 10.0 mi South 5.8 mph - N/A   Overcast
7:53 PM 51.1 °F 44.1 °F 77% 29.53 in 10.0 mi South 4.6 mph - N/A   Partly Cloudy
8:53 PM 51.1 °F 44.1 °F 77% 29.54 in 10.0 mi South 6.9 mph - N/A   Clear
9:53 PM 51.1 °F 41.0 °F 68% 29.54 in 10.0 mi SW 6.9 mph - N/A   Mostly Cloudy
10:53 PM 50.0 °F 41.0 °F 71% 29.55 in 10.0 mi SW 9.2 mph - N/A   Mostly Cloudy
11:53 PM 50.0 °F 39.0 °F 66% 29.55 in 10.0 mi SW 8.1 mph - N/A   Overcast